Location: Austin
(30.3000°N, 97.7500°W)
Time: 04:30:00
(UTC-05:00)

Cosmos 1190 Rocket - Pass Details

Date: 18 March 2023
Orbit: 756 x 778 km, 74.1° (Epoch: 01 April)

Event Time Altitude Azimuth Distance (km) Brightness Sun altitude
Rises 21:44:59 0° 341° (NNW) 3,215 7.7 -27.2°
Reaches altitude 10° 21:47:21 10° 339° (NNW) 2,289 6.9 -27.7°
Enters shadow 21:52:23 70° 268° (W) 808 4.1 -28.7°
